This is the latest recevied weather packets stored in our database for station/object SV9TNF-2. If no packets are shown the sender has not sent any weather packets the latest 10 day(s).
| Time | Temp. | Humidity | Pressure | Rain* | Wind** | Luminosity | Snow |
|---|---|---|---|---|---|---|---|
| 1777583703 | 16.67° C | 47% | 1020 hPa | 0 mm | 5.81 m/s, 247° | - | - |
| 1777583403 | 16.67° C | 46% | 1020 hPa | 0 mm | 4.92 m/s, 204° | - | - |
| 1777583103 | 16.67° C | 45% | 1020 hPa | 0 mm | 6.26 m/s, 172° | - | - |
| 1777582807 | 16.67° C | 46% | 1020 hPa | 0 mm | 4.92 m/s, 196° | - | - |
| 1777582503 | 16.67° C | 45% | 1020 hPa | 0 mm | 4.92 m/s, 90° | - | - |
| 1777582203 | 16.67° C | 47% | 1020 hPa | 0 mm | 8.05 m/s, 150° | - | - |
| 1777581903 | 16.67° C | 48% | 1020 hPa | 0 mm | 5.81 m/s, 214° | - | - |
| 1777581603 | 16.67° C | 48% | 1020 hPa | 0 mm | 6.26 m/s, 158° | - | - |
| 1777581303 | 16.67° C | 49% | 1020 hPa | 0 mm | 8.05 m/s, 226° | - | - |
| 1777581003 | 16.67° C | 49% | 1020 hPa | 0 mm | 6.71 m/s, 191° | - | - |
| 1777580702 | 16.67° C | 49% | 1020 hPa | 0 mm | 7.15 m/s, 161° | - | - |
| 1777580402 | 16.67° C | 50% | 1020 hPa | 0 mm | 8.94 m/s, 114° | - | - |
| 1777580102 | 16.67° C | 50% | 1020 hPa | 0 mm | 8.94 m/s, 194° | - | - |
| 1777579802 | 16.67° C | 49% | 1020.3 hPa | 0 mm | 12.07 m/s, 190° | - | - |
| 1777579502 | 16.67° C | 48% | 1020.3 hPa | 0 mm | 10.73 m/s, 160° | - | - |
| 1777579202 | 16.67° C | 48% | 1020.3 hPa | 0 mm | 8.05 m/s, 178° | - | - |
| 1777578902 | 17.22° C | 48% | 1020.3 hPa | 0 mm | 5.81 m/s, 195° | - | - |
| 1777578601 | 17.22° C | 49% | 1020.3 hPa | 0 mm | 9.39 m/s, 190° | - | - |
| 1777578301 | 17.22° C | 47% | 1020.3 hPa | 0 mm | 8.05 m/s, 147° | - | - |
| 1777578001 | 17.22° C | 47% | 1020.3 hPa | 0 mm | 8.94 m/s, 213° | - | - |
| 1777577701 | 17.78° C | 47% | 1020.3 hPa | 0 mm | 6.26 m/s, 207° | - | - |
| 1777577401 | 17.78° C | 44% | 1020.3 hPa | 0 mm | 6.71 m/s, 158° | - | - |
| 1777577101 | 17.78° C | 47% | 1020.3 hPa | 0 mm | 6.26 m/s, 222° | - | - |
| 1777576801 | 17.22° C | 49% | 1020.3 hPa | 0 mm | 6.26 m/s, 270° | - | - |
| 1777576501 | 17.22° C | 52% | 1020.3 hPa | 0 mm | 2.68 m/s, 193° | - | - |
* Rain latest hour (hover to see other rain measurements)
** Current wind speed in m/s (hover to see current wind gust speed)